• In Hungary
  • List of Countries
  • For 7 days
  • Water Temperature
  • Satellite Maps
  • Weather Map
  • News
  • Weather Widgets
  • user-avatar
    Login

    Hourly Weather Rogow

    Today, 19 October, Friday

    Time Temperature Precipitation Wind Pressure Humidity
    00:00 +12°C° 0 mm 2 mps 745 mmHg 82%
    01:00 +10°C° 0 mm 2 mps 745 mmHg 86%
    02:00 +10°C° 0 mm 2 mps 745 mmHg 87%
    03:00 +10°C° 0 mm 2 mps 745 mmHg 88%
    04:00 +10°C° 0 mm 2 mps 745 mmHg 90%
    05:00 +9°C° 0 mm 2 mps 745 mmHg 91%
    06:00 +9°C° 0 mm 2 mps 746 mmHg 93%
    07:00 +9°C° 0 mm 2 mps 746 mmHg 94%
    08:00 +10°C° 0 mm 2 mps 746 mmHg 89%
    09:00 +12°C° 0 mm 3 mps 746 mmHg 85%
    10:00 +13°C° 0 mm 3 mps 746 mmHg 80%
    11:00 +14°C° 0 mm 3 mps 746 mmHg 77%
    12:00 +14°C° 0 mm 3 mps 746 mmHg 75%
    13:00 +16°C° 0 mm 3 mps 746 mmHg 72%
    14:00 +14°C° 0 mm 3 mps 746 mmHg 74%
    15:00 +14°C° 0 mm 3 mps 746 mmHg 75%
    16:00 +15°C° 0 mm 2 mps 746 mmHg 77%
    17:00 +14°C° 0 mm 2 mps 746 mmHg 80%
    18:00 +13°C° 0 mm 2 mps 746 mmHg 82%
    19:00 +13°C° 0 mm 1 mps 747 mmHg 85%
    20:00 +13°C° 0 mm 1 mps 747 mmHg 86%
    21:00 +12°C° 0 mm 1 mps 747 mmHg 87%
    22:00 +12°C° 0 mm 1 mps 748 mmHg 87%
    23:00 +12°C° 0 mm 1 mps 748 mmHg 88%

    Tomorrow, 20 October, Saturday

    Time Temperature Precipitation Wind Pressure Humidity
    00:00 +12°C° 0 mm 1 mps 748 mmHg 88%
    01:00 +12°C° 0 mm 1 mps 748 mmHg 88%
    02:00 +11°C° 0 mm 1 mps 748 mmHg 89%
    03:00 +10°C° 0 mm 2 mps 748 mmHg 89%
    04:00 +10°C° 0 mm 2 mps 748 mmHg 89%
    05:00 +10°C° 0 mm 2 mps 748 mmHg 89%
    06:00 +10°C° 0 mm 2 mps 748 mmHg 88%
    07:00 +10°C° 0 mm 2 mps 749 mmHg 88%
    08:00 +12°C° 0 mm 2 mps 749 mmHg 84%
    09:00 +11°C° 0 mm 3 mps 749 mmHg 80%
    10:00 +12°C° 0 mm 3 mps 749 mmHg 76%
    11:00 +12°C° 0 mm 3 mps 749 mmHg 72%
    12:00 +13°C° 0 mm 3 mps 749 mmHg 67%
    13:00 +13°C° 0 mm 4 mps 750 mmHg 62%
    14:00 +13°C° 0 mm 3 mps 749 mmHg 62%
    15:00 +13°C° 0 mm 3 mps 749 mmHg 62%
    16:00 +12°C° 0 mm 3 mps 749 mmHg 62%
    17:00 +12°C° 0 mm 2 mps 749 mmHg 66%
    18:00 +9°C° 0 mm 2 mps 750 mmHg 69%
    19:00 +8°C° 0 mm 2 mps 750 mmHg 73%
    20:00 +7°C° 0 mm 2 mps 750 mmHg 75%
    21:00 +7°C° 0 mm 2 mps 750 mmHg 77%
    22:00 +6°C° 0 mm 2 mps 750 mmHg 78%
    23:00 +6°C° 0 mm 2 mps 750 mmHg 80%

    Day after tomorrow, 21 October, Sunday

    Time Temperature Precipitation Wind Pressure Humidity
    00:00 +6°C° 0 mm 2 mps 750 mmHg 81%
    01:00 +6°C° 0 mm 2 mps 750 mmHg 82%
    02:00 +6°C° 0 mm 2 mps 750 mmHg 83%
    03:00 +6°C° 0 mm 2 mps 750 mmHg 84%
    04:00 +5°C° 0 mm 2 mps 750 mmHg 84%
    05:00 +6°C° 0 mm 2 mps 750 mmHg 84%
    06:00 +5°C° 0 mm 3 mps 750 mmHg 84%
    07:00 +5°C° 0 mm 3 mps 750 mmHg 83%
    08:00 +8°C° 0 mm 3 mps 750 mmHg 80%
    09:00 +8°C° 0 mm 4 mps 750 mmHg 77%
    10:00 +10°C° 0 mm 4 mps 749 mmHg 73%
    11:00 +10°C° 0 mm 4 mps 749 mmHg 72%
    12:00 +10°C° 0 mm 4 mps 749 mmHg 70%
    13:00 +11°C° 0 mm 4 mps 749 mmHg 68%
    14:00 +10°C° 0 mm 4 mps 749 mmHg 69%
    15:00 +10°C° 0 mm 3 mps 748 mmHg 69%
    16:00 +10°C° 0 mm 3 mps 748 mmHg 70%
    17:00 +9°C° 0 mm 2 mps 748 mmHg 74%
    18:00 +9°C° 0 mm 2 mps 748 mmHg 77%
    19:00 +8°C° 0 mm 2 mps 748 mmHg 80%
    20:00 +8°C° 0 mm 2 mps 748 mmHg 81%
    21:00 +8°C° 0 mm 2 mps 749 mmHg 82%
    22:00 +7°C° 0 mm 2 mps 749 mmHg 83%
    23:00 +7°C° 0 mm 2 mps 749 mmHg 84%

    22 October, Monday

    Time Temperature Precipitation Wind Pressure Humidity
    00:00 +7°C° 0 mm 2 mps 748 mmHg 85%
    01:00 +6°C° 0 mm 2 mps 748 mmHg 87%
    02:00 +7°C° 0 mm 1 mps 748 mmHg 88%
    03:00 +7°C° 0 mm 1 mps 748 mmHg 89%
    04:00 +6°C° 0 mm 1 mps 748 mmHg 91%
    05:00 +6°C° 0 mm 1 mps 748 mmHg 91%
    06:00 +6°C° 0 mm 1 mps 748 mmHg 91%
    07:00 +6°C° 0 mm 1 mps 748 mmHg 91%
    08:00 +8°C° 0 mm 1 mps 748 mmHg 82%
    09:00 +9°C° 0 mm 1 mps 748 mmHg 73%
    10:00 +11°C° 0 mm 1 mps 748 mmHg 65%
    11:00 +12°C° 0 mm 1 mps 748 mmHg 59%
    12:00 +13°C° 0 mm 1 mps 747 mmHg 53%
    13:00 +14°C° 0 mm 1 mps 747 mmHg 48%
    14:00 +14°C° 0 mm 2 mps 747 mmHg 51%
    15:00 +13°C° 0 mm 2 mps 746 mmHg 55%
    16:00 +13°C° 0 mm 2 mps 746 mmHg 58%
    17:00 +10°C° 0.1 mm 2 mps 746 mmHg 66%
    18:00 +9°C° 0.1 mm 2 mps 746 mmHg 73%
    19:00 +8°C° 0.1 mm 3 mps 746 mmHg 81%
    20:00 +7°C° 0.6 mm 4 mps 746 mmHg 83%
    21:00 +7°C° 0.6 mm 5 mps 747 mmHg 84%
    22:00 +6°C° 0.6 mm 5 mps 747 mmHg 86%
    23:00 +6°C° 0.6 mm 5 mps 747 mmHg 86%

    23 October, Tuesday

    Time Temperature Precipitation Wind Pressure Humidity
    00:00 +6°C° 0.6 mm 5 mps 747 mmHg 85%
    01:00 +6°C° 0.6 mm 5 mps 747 mmHg 84%
    02:00 +5°C° 0.1 mm 5 mps 747 mmHg 84%
    03:00 +5°C° 0.1 mm 4 mps 746 mmHg 84%
    04:00 +4°C° 0.1 mm 4 mps 746 mmHg 84%
    05:00 +4°C° 0 mm 4 mps 746 mmHg 85%
    06:00 +4°C° 0 mm 4 mps 747 mmHg 86%
    07:00 +3°C° 0 mm 3 mps 747 mmHg 87%
    08:00 +4°C° 0 mm 4 mps 747 mmHg 81%
    09:00 +5°C° 0 mm 4 mps 747 mmHg 75%
    10:00 +7°C° 0 mm 4 mps 747 mmHg 69%
    11:00 +7°C° 0 mm 4 mps 746 mmHg 66%
    12:00 +8°C° 0 mm 5 mps 746 mmHg 62%
    13:00 +9°C° 0 mm 5 mps 745 mmHg 58%
    14:00 +8°C° 0 mm 4 mps 745 mmHg 59%
    15:00 +8°C° 0 mm 4 mps 744 mmHg 61%
    16:00 +8°C° 0 mm 4 mps 744 mmHg 63%
    17:00 +7°C° 0.1 mm 4 mps 744 mmHg 66%
    18:00 +7°C° 0.1 mm 4 mps 743 mmHg 69%
    19:00 +6°C° 0.1 mm 5 mps 743 mmHg 72%
    20:00 +6°C° 0.1 mm 5 mps 743 mmHg 75%
    21:00 +6°C° 0.1 mm 4 mps 743 mmHg 78%
    22:00 +6°C° 0.1 mm 4 mps 742 mmHg 82%
    23:00 +7°C° 0 mm 4 mps 742 mmHg 82%

    24 October, Wednesday

    Time Temperature Precipitation Wind Pressure Humidity
    00:00 +7°C° 0 mm 4 mps 741 mmHg 83%
    01:00 +7°C° 0 mm 5 mps 741 mmHg 84%
    02:00 +7°C° 0.2 mm 5 mps 740 mmHg 84%
    03:00 +7°C° 0.2 mm 6 mps 739 mmHg 84%
    04:00 +8°C° 0.2 mm 6 mps 739 mmHg 83%
    05:00 +8°C° 0.8 mm 7 mps 738 mmHg 84%
    06:00 +9°C° 0.8 mm 7 mps 737 mmHg 84%
    07:00 +9°C° 0.8 mm 8 mps 736 mmHg 84%
    08:00 +10°C° 0.4 mm 8 mps 735 mmHg 84%
    09:00 +10°C° 0.4 mm 8 mps 735 mmHg 84%
    10:00 +11°C° 0.4 mm 8 mps 734 mmHg 83%
    11:00 +11°C° 0.3 mm 8 mps 734 mmHg 82%
    12:00 +11°C° 0.3 mm 9 mps 734 mmHg 81%
    13:00 +11°C° 0.3 mm 9 mps 733 mmHg 80%
    14:00 +11°C° 0.2 mm 9 mps 734 mmHg 77%
    15:00 +10°C° 0.2 mm 9 mps 734 mmHg 74%
    16:00 +10°C° 0.2 mm 9 mps 735 mmHg 70%
    17:00 +8°C° 0.1 mm 9 mps 736 mmHg 69%
    18:00 +9°C° 0.1 mm 8 mps 736 mmHg 67%
    19:00 +7°C° 0.1 mm 8 mps 737 mmHg 66%
    20:00 +7°C° 0.1 mm 8 mps 738 mmHg 66%
    21:00 +6°C° 0.1 mm 7 mps 739 mmHg 66%
    22:00 +6°C° 0.1 mm 7 mps 739 mmHg 66%
    23:00 +5°C° 0 mm 7 mps 740 mmHg 67%
    Show more